Weather History for Chanute, KS

Change the Weather History Date:

Saturday, January 12, 2013

  Actual Average Record
Temperature  
Mean Temperature 41 °F 32 °F  
Max Temperature 59 °F 42 °F 70 °F (1960)
Min Temperature 22 °F 23 °F -19 °F (1918)
Degree Days  
Heating Degree Days 24 33  
Month to date heating degree days 345 396  
Since 1 July heating degree days 1748 2189  
Cooling Degree Days 0 0  
Month to date cooling degree days 0 0  
Year to date cooling degree days 0 0  
Moisture  
Dew Point 22 °F    
Average Humidity 57    
Maximum Humidity 85    
Minimum Humidity 29    
Precipitation  
Precipitation 0.00 in 0.04 in 0.74 in (1927)
Month to date precipitation 0.40 0.47  
Year to date precipitation 0.40 0.47  
Sea Level Pressure  
Sea Level Pressure 30.00 in    
Wind  
Wind Speed 14 mph (North)    
Max Wind Speed 24 mph    
Max Gust Speed 29 mph    
Visibility 7 miles    
Events Rain , Snow    
T = Trace of Precipitation, MM = Missing Value Source: NWS Daily Summary

Daily Weather History Graph

Daily Weather History Graph

Search for Another Location

Airport:

Trip Planner

Search our weather history database for the weather conditions in past years. The results will help you decide how hot, cold, wet, or windy it might be!

Date:

Astronomy

Jan. 12, 2013 Rise Set
Actual Time 7:36 AM CST 5:24 PM CST
Civil Twilight 7:07 AM CST 5:53 PM CST
Nautical Twilight 6:35 AM CST 6:25 PM CST
Astronomical Twilight 6:04 AM CST 6:57 PM CST
Moon 7:58 AM CST (1/12) 6:52 PM CST (1/12)
Length of Visible Light 10h 45m
Length of Day
9h 47m
New Moon, 1% of the Moon is Illuminated
Jan 12
New Moon
Jan 18
First Quarter
Jan 26
Full
Feb 3
Last Quarter
Feb 10
New

Hourly Weather History & Observations

Time (CST) Temp. Windchill Dew Point Humidity Pressure Visibility Wind Dir Wind Speed Gust Speed Precip Events Conditions
12:52 AM 53.1 °F - 23.0 °F 31% 29.83 in 10.0 mi WNW 16.1 mph 21.9 mph N/A   Overcast
1:52 AM 48.0 °F - 27.0 °F 44% 29.86 in 10.0 mi NW 15.0 mph 20.7 mph N/A   Overcast
2:52 AM 43.0 °F 37.7 °F 34.0 °F 71% 29.91 in 10.0 mi NW 9.2 mph - N/A   Overcast
3:52 AM 39.0 °F 29.6 °F 32.0 °F 76% 29.93 in 10.0 mi NNW 18.4 mph 26.5 mph N/A   Overcast
4:52 AM 36.0 °F 25.3 °F 28.9 °F 76% 29.94 in 10.0 mi NNW 19.6 mph 24.2 mph N/A   Overcast
5:52 AM 35.1 °F 25.9 °F 26.1 °F 70% 29.97 in 10.0 mi North 13.8 mph - N/A   Overcast
6:52 AM 33.1 °F 23.0 °F 24.1 °F 70% 29.98 in 10.0 mi North 15.0 mph 19.6 mph N/A   Overcast
7:52 AM 30.9 °F 21.7 °F 21.9 °F 69% 30.04 in 10.0 mi North 11.5 mph 24.2 mph N/A   Overcast
8:52 AM 30.9 °F 21.2 °F 19.9 °F 64% 30.07 in 10.0 mi North 12.7 mph - N/A   Overcast
9:52 AM 30.9 °F 21.2 °F 19.9 °F 64% 30.06 in 10.0 mi North 12.7 mph - 0.00 in   Mostly Cloudy
10:52 AM 32.0 °F 21.2 °F 18.0 °F 56% 30.03 in 10.0 mi NNE 16.1 mph 24.2 mph 0.00 in   Partly Cloudy
11:52 AM 30.2 °F 20.2 °F 19.4 °F 64% 30.01 in 10.0 mi NNE 12.7 mph - N/A   Overcast
12:52 PM 30.0 °F 20.0 °F 19.9 °F 66% 30.00 in 10.0 mi North 12.7 mph - 0.00 in   Overcast
1:31 PM 28.4 °F 16.6 °F 21.2 °F 74% 29.98 in 7.0 mi North 16.1 mph 20.7 mph 0.00 in Rain Light Freezing Rain
1:47 PM 28.4 °F 17.5 °F 23.0 °F 80% 29.98 in 3.0 mi North 13.8 mph 26.5 mph N/A Rain Light Freezing Rain
1:52 PM 28.9 °F 17.3 °F 24.1 °F 82% 30.00 in 2.5 mi North 16.1 mph 21.9 mph N/A Rain Light Freezing Rain
2:02 PM 28.4 °F 17.0 °F 23.0 °F 80% 29.99 in 3.0 mi North 15.0 mph 23.0 mph N/A Rain Light Freezing Rain
2:26 PM 26.6 °F 14.7 °F 23.0 °F 86% 29.97 in 3.0 mi North 15.0 mph 24.2 mph N/A Snow Light Snow
2:52 PM 26.1 °F 14.5 °F 23.0 °F 88% 29.99 in 5.0 mi North 13.8 mph - N/A Snow Light Snow
3:00 PM 26.6 °F 15.2 °F 23.0 °F 86% 29.99 in 6.0 mi North 13.8 mph 20.7 mph N/A Snow Light Snow
3:18 PM 26.6 °F 18.2 °F 23.0 °F 86% 30.03 in 8.0 mi North 8.1 mph - N/A   Overcast
3:35 PM 26.6 °F 15.7 °F 23.0 °F 86% 30.01 in 4.0 mi North 12.7 mph - N/A   Overcast
3:39 PM 26.6 °F 14.3 °F 21.2 °F 80% 30.01 in 2.5 mi North 16.1 mph 21.9 mph N/A Snow Light Snow
3:46 PM 26.6 °F 14.7 °F 21.2 °F 80% 29.99 in 1.8 mi North 15.0 mph - N/A Snow Light Snow
3:52 PM 26.1 °F 14.5 °F 21.9 °F 84% 30.01 in 1.5 mi NNE 13.8 mph 21.9 mph N/A Snow Light Snow
4:03 PM 26.6 °F 14.7 °F 21.2 °F 80% 29.97 in 2.0 mi NNE 15.0 mph 21.9 mph N/A Snow Light Snow
4:38 PM 26.6 °F 17.5 °F 23.0 °F 86% 30.06 in 1.8 mi NNW 9.2 mph - N/A Snow Light Snow
4:48 PM 26.6 °F 16.8 °F 23.0 °F 86% 30.04 in 1.0 mi North 10.4 mph - N/A Snow Light Snow
4:52 PM 26.1 °F 15.6 °F 23.0 °F 88% 30.04 in 0.8 mi North 11.5 mph - N/A Snow Light Snow
5:07 PM 26.6 °F 16.8 °F 23.0 °F 86% 29.99 in 1.2 mi North 10.4 mph - N/A Snow Light Snow
5:11 PM 26.6 °F 16.2 °F 21.2 °F 80% 29.99 in 2.0 mi North 11.5 mph - N/A Snow Light Snow
5:18 PM 26.6 °F 14.7 °F 19.4 °F 74% 29.98 in 7.0 mi North 15.0 mph 21.9 mph N/A Snow Light Snow
5:52 PM 27.0 °F 15.6 °F 17.1 °F 66% 30.02 in 10.0 mi North 13.8 mph 24.2 mph N/A   Overcast
6:52 PM 26.1 °F 14.0 °F 16.0 °F 66% 30.03 in 10.0 mi North 15.0 mph - N/A   Overcast
7:52 PM 25.0 °F 14.2 °F 16.0 °F 69% 30.09 in 10.0 mi North 11.5 mph - N/A   Overcast
8:52 PM 24.1 °F 10.6 °F 17.1 °F 75% 30.06 in 10.0 mi NNW 17.3 mph 21.9 mph N/A   Overcast
9:52 PM 24.1 °F 11.0 °F 17.1 °F 75% 30.08 in 10.0 mi North 16.1 mph 20.7 mph N/A   Overcast
10:52 PM 25.0 °F 13.1 °F 16.0 °F 69% 30.08 in 10.0 mi North 13.8 mph 20.7 mph N/A   Overcast
11:52 PM 21.2 °F 10.1 °F 12.2 °F 68% 30.06 in 10.0 mi North 10.4 mph 20.7 mph N/A   Partly Cloudy